This is the latest recevied weather packets stored in our database for station/object KK4KTV-13. If no packets are shown the sender has not sent any weather packets the latest 10 day(s).
| Time | Temp. | Humidity | Pressure | Rain* | Wind** | Luminosity | Snow |
|---|---|---|---|---|---|---|---|
| 1777501593 | 18.89° C | 72% | 1011.3 hPa | 0 mm | - | 241 W/m² | - |
| 1777501290 | 18.89° C | 72% | 1011.3 hPa | 0 mm | - | 262 W/m² | - |
| 1777500988 | 18.89° C | 72% | 1011.3 hPa | 0 mm | - | 268 W/m² | - |
| 1777500686 | 19.44° C | 74% | 1011.4 hPa | 0 mm | - | 135 W/m² | - |
| 1777500382 | 19.44° C | 73% | 1011.5 hPa | 0 mm | - | 257 W/m² | - |
| 1777500078 | 19.44° C | 74% | 1011.5 hPa | 0 mm | - | 299 W/m² | - |
| 1777499775 | 18.89° C | 75% | 1011.2 hPa | 0 mm | - | 296 W/m² | - |
| 1777499471 | 18.33° C | 77% | 1011.2 hPa | 0 mm | - | 340 W/m² | - |
| 1777499170 | 18.33° C | 77% | 1011.5 hPa | 0 mm | - | 141 W/m² | - |
| 1777498866 | 18.33° C | 76% | 1011.4 hPa | 0 mm | - | 174 W/m² | - |
| 1777498563 | 17.78° C | 76% | 1011.2 hPa | 0 mm | - | 174 W/m² | - |
| 1777498258 | 17.78° C | 77% | 1011.3 hPa | 0 mm | - | 124 W/m² | - |
| 1777497957 | 17.78° C | 78% | 1011.3 hPa | 0 mm | - | 141 W/m² | - |
| 1777497653 | 17.78° C | 79% | 1011.5 hPa | 0 mm | - | 134 W/m² | - |
| 1777497349 | 18.33° C | 78% | 1011.3 hPa | 0 mm | - | 118 W/m² | - |
| 1777497045 | 18.33° C | 78% | 1011.4 hPa | 0 mm | - | 206 W/m² | - |
| 1777496742 | 18.33° C | 79% | 1011.2 hPa | 0 mm | - | 528 W/m² | - |
| 1777496439 | 18.33° C | 79% | 1011.2 hPa | 0 mm | - | 199 W/m² | - |
| 1777496136 | 17.78° C | 78% | 1011.3 hPa | 0 mm | - | 252 W/m² | - |
| 1777495832 | 18.33° C | 79% | 1011.2 hPa | 0 mm | - | 267 W/m² | - |
| 1777495528 | 17.78° C | 83% | 1011.1 hPa | 0 mm | - | 439 W/m² | - |
| 1777495224 | 17.22° C | 85% | 1011.1 hPa | 0 mm | - | 585 W/m² | - |
| 1777494921 | 17.22° C | 86% | 1011.4 hPa | 0 mm | - | 307 W/m² | - |
| 1777494618 | 17.22° C | 86% | 1011.4 hPa | 0 mm | - | 207 W/m² | - |
| 1777494316 | 17.22° C | 86% | 1011.3 hPa | 0 mm | - | 318 W/m² | - |
* Rain latest hour (hover to see other rain measurements)
** Current wind speed in m/s (hover to see current wind gust speed)